Tracking 28052 objects as of 21-Sep-2023
HD Live streaming from Space Station
objects crossing your sky now

COSMOS 397 DEB

Track COSMOS 397 DEB now!
10-day predictions


NORAD ID: 5763
Int'l Code: 1971-015CF
Perigee: 842.2 km
Apogee: 1,421.9 km
Inclination: 66.9 °
Period: 107.8 minutes
Semi major axis: 7503 km
RCS: 0.0229 m2 (small)
Launch date: February 25, 1971
Source: Commonwealth of Independent States (former USSR) (CIS)
Launch site: TYURATAM MISSILE AND SPACE COMPLEX (TTMTR)

Note: This is SATELLITE DEBRIS
Your satellite tracking list
Your tracking list is empty




NASA's NSSDC Master Catalog

Two Line Element Set (TLE):
1 05763U 71015CF  23263.58412884  .00003487  00000-0  45443-2 0  9995
2 05763  66.9036 344.2360 0386253 193.6889 165.3452 13.35816404518922
Source of the keplerian elements: AFSPC